Location: Unspecified
(47.4992°N, 121.7766°W)
Time: 17:43:02
(UTC-08:00)

Cosmos 2058 - Pass Details

Date: 02 February 2021
Orbit: 561 x 584 km, 82.5° (Epoch: 05 March)

Event Time Altitude Azimuth Distance (km) Brightness Sun altitude
Rises 05:50:02 0° 353° (N) 2,771 6.3 -17.3°
Reaches altitude 10° 05:52:15 10° 356° (N) 1,867 5.4 -17.0°
Maximum altitude 05:56:20 64° 79° (E) 625 3.3 -16.3°
Drops below altitude 10° 06:00:23 10° 161° (SSE) 1,847 5.8 -15.6°
Sets 06:02:33 0° 165° (SSE) 2,738 6.7 -15.2°
